Preview of NWS' New Version of Forecast
This preview is not operational and should not be used for support decisions.

Regional Weather Roundup (RWR)

Issued by National Weather Service (NWS)

                            
000
ASUS46 KSEW 240510
RWRWA 

WASHINGTON REGIONAL WEATHER ROUNDUP
NATIONAL WEATHER SERVICE SEATTLE WA
1000 PM PDT SUN JUN 23 2019

NOTE:"FAIR" INDICATES FEW OR NO CLOUDS BELOW 12,000 FEET WITH NO 
SIGNIFICANT WEATHER AND/OR OBSTRUCTIONS TO VISIBILITY.

WAZ507-509-555>559-240600-
SEATTLE, TACOMA, EVERETT, AND VICINITY
  
CITY           SKY/WX    TMP DP  RH WIND       PRES   REMARKS
EVERETT        LGT RAIN  53  49  86 N3        30.15R                  
BOEING FIELD   CLOUDY    56  47  71 VRB5      30.14S                  
RENTON         CLOUDY    57  49  74 VRB3      30.14S                  
SEATAC AIRPORT CLOUDY    57  47  69 NE13      30.14S                  
JBLM-MCCHORD   CLOUDY    59  50  72 SW5       30.14R                  
PUYALLUP       CLOUDY    57  46  67 CALM      30.14S                  
BREMERTON      CLOUDY    53  49  86 NE12      30.13R                  
JBLM-FT LEWIS  CLOUDY    58  49  72 SW9       30.13R                  
TACOMA NARROWS CLOUDY    57  44  62 VRB5      30.14R                  
$$
 
WAZ001-503-506-510-514-515-240600-
NORTH INTERIOR
  
CITY           SKY/WX    TMP DP  RH WIND       PRES   REMARKS
BELLINGHAM     CLOUDY    57  48  72 S9        30.10R                  
FRIDAY HARBOR  CLOUDY    54  47  77 SW8       30.11S                  
EASTSOUND      LGT RAIN  57  50  77 S6        30.09S                  
PORT ANGELES   PTCLDY    53  46  77 W10       30.14S                  
EDIZ HOOK      CLOUDY    54  49  84 W15       30.13S                  
PORT TOWNSEND  CLOUDY    55  48  76 W10G20    30.12R                  
NAS WHIDBEY    CLOUDY    57  48  72 W20G29    30.15R                  
ARLINGTON      LGT RAIN  55  47  74 N5        30.15S                  
BURLINGTON     CLOUDY    55  48  76 CALM      30.13R                  
$$
 
WAZ020-022-039-040-504-511-512-240600-
SOUTHWEST INTERIOR
  
CITY           SKY/WX    TMP DP  RH WIND       PRES   REMARKS
SHELTON        PTCLDY    56  44  64 W8        30.10R                  
OLYMPIA        PTCLDY    55  44  66 SW9       30.14R                  
CHEHALIS       FAIR      55  48  76 CALM      30.16S                  
KELSO          MOCLDY    57  47  69 VRB3      30.17S                  
VANCOUVER      MOCLDY    59  46  62 NW6       30.15R                  
SCAPPOOSE, OR  CLEAR     57  45  64 NW7       30.14S                  
PORTLAND, OR   PTCLDY    59  47  64 NW9G16    30.15R                  
$$
 
WAZ021-516-517-240600-
WASHINGTON COAST
  
CITY           SKY/WX    TMP DP  RH WIND       PRES   REMARKS
FORKS          CLOUDY    53  49  86 W3        30.17S                  
HOQUIAM        PTCLDY    54  52  93 NW8       30.17S                  
ASTORIA, OR    MOCLDY    56  49  77 NW7       30.18R                  
$$
 
WAZ019-023-024-040-567>569-240600-
CASCADE MOUNTAINS AND COLUMBIA GORGE
  
CITY           SKY/WX    TMP DP  RH WIND       PRES   REMARKS
STAMPEDE PASS  CLOUDY    45  41  86 W9        30.09S                  
TROUTDALE, OR  MOCLDY    59  47  64 VRB7      30.14R                  
HOOD RIVER, OR PTCLDY    61  45  55 NW7       30.08S                  
THE DALLES, OR PTCLDY    63  44  50 W13       30.04S                  
$$

WAZ026-027-041>044-520-521-240600-
EAST SLOPES
  
CITY           SKY/WX    TMP DP  RH WIND       PRES   REMARKS
OMAK           MOCLDY    67  35  30 N10       29.88R                  
WENATCHEE      MOCLDY    62  38  40 W18G26    29.92F                  
ELLENSBURG     CLOUDY    58  43  57 NW22G32   30.00F                  
YAKIMA         MOCLDY    61  39  44 W9        29.99S                  
SUNNYSIDE ARPT PTCLDY    61  43  51 CALM      29.98                   
YAKIMA TC      FAIR      62  37  39 N12       29.98S                  
$$

WAZ028-034-035-240600-
COLUMBIA BASIN
  
CITY           SKY/WX    TMP DP  RH WIND       PRES   REMARKS
EPHRATA        MOCLDY    64  33  31 NW13      29.89R                  
MOSES LAKE     MOCLDY    64  36  35 W6        29.92S                  
PASCO          PTCLDY    65  39  38 NW12      29.96R                  
RICHLAND ARPT  PTCLDY    65  39  38 SW7       29.96R                  
HERMISTON, OR  PTCLDY    63  44  50 W14       29.99R                  
$$

WAZ036>038-240600-
NORTHEAST WASHINGTON
  
CITY           SKY/WX    TMP DP  RH WIND       PRES   REMARKS
SPOKANE GEIGER CLOUDY    64  41  42 S12       29.90R                  
SPOKANE FELTS  MOCLDY    66  43  43 S9        29.89R                  
FAIRCHILD AFB  CLOUDY    62  34  34 SW15      29.90R                  
COEURDALENE,ID CLOUDY    64  45  49 CALM      29.92S                  
DEER PARK        N/A     56  50  80 NE7       29.89S                  
$$

WAZ029>033-240600-
SOUTHEAST WASHINGTON
  
CITY           SKY/WX    TMP DP  RH WIND       PRES   REMARKS
PULLMAN        CLOUDY    60  43  53 SW9       29.97S                  
LEWISTON, ID   MOCLDY    67  41  38 S6        29.93S                  
WALLA WALLA    CLOUDY    66  44  45 SW15G23   29.99R                  
PENDLETON, OR  MOCLDY    61  42  49 W21G30    29.99R                  
$$